Flag for U.S.A. Weather past 2 weeks in Fort Myers, Florida, U.S.A.

Now
84 °F

Partly sunny.


Feels Like: 83 °F
Forecast: 64 / 84 °F
Wind: 10 mph from East

Location: Page Field

Current Time: May 3, 2015 at 4:01:55 PM

Latest Report: May 3, 2015 at 2:53 PM


Visibility: 10 mi

Pressure: 30.08 "Hg

Humidity: 35%

Dew point: 53 °F

Location of Fort MyersLocation

Historic Weather in Fort Myers — Graph

°F

Fort Myers temperature yesterday

Maximum temperature yesterday: 84 °F (at 2:53 PM)
Minimum temperature yesterday: 64 °F (at 5:53 AM)
Average temperature yesterday: 74 °F

Past Weeks' High & Low Weather Summary

 TemperatureHumidityPressure
High92 °F (Apr 27, 2:53 PM)100% (Apr 21, 7:53 AM)30.12 "Hg (Apr 21, 7:53 AM)
Low61 °F (May 1, 6:53 AM)33% (May 2, 2:53 PM)29.67 "Hg (Apr 29, 3:53 PM)
Average78 °F72%29.89 "Hg
* Reported Apr 18 2:53 PM — May 3 2:53 PM, Fort Myers, Weather by CustomWeather, © 2015

Note: Actual official high and low records may vary slightly from our data, if they occured in-between our weather recording intervals... More about our weather records

Advertising

Fort Myers weather history for previous 24 hours

 ConditionsComfort  
Time TempWeatherWind HumidityBarometerVisibility
2:53 PM
Sun, May 3
84 °FPartly sunny.10 mph35%30.08 "Hg10 mi
1:53 PM85 °FScattered clouds.12 mph34%30.10 "Hg10 mi
12:53 PM82 °FScattered clouds.15 mph41%30.11 "Hg10 mi
11:53 AM81 °FScattered clouds.14 mph42%30.12 "Hg10 mi
10:53 AM79 °FSunny.9 mph44%30.12 "Hg10 mi
9:53 AM76 °FSunny.14 mph50%30.11 "Hg10 mi
8:53 AM71 °FSunny.9 mph63%30.11 "Hg10 mi
7:53 AM65 °FSunny.8 mph81%30.09 "Hg10 mi
6:53 AM62 °FClear.5 mph90%30.08 "Hg10 mi
5:53 AM63 °FClear.6 mph90%30.06 "Hg10 mi
4:53 AM63 °FClear.5 mph90%30.06 "Hg10 mi
3:53 AM64 °FClear.3 mph87%30.06 "Hg10 mi
2:53 AM65 °FClear.5 mph85%30.06 "Hg10 mi
1:53 AM67 °FClear.7 mph79%30.06 "Hg10 mi
12:53 AM69 °FClear.7 mph73%30.06 "Hg10 mi
11:53 PM
Sat, May 2
70 °FClear.9 mph68%30.06 "Hg10 mi
10:53 PM71 °FClear.9 mph61%30.05 "Hg10 mi
9:53 PM73 °FClear.6 mph51%30.03 "Hg10 mi
8:53 PM75 °FPassing clouds.6 mph50%30.01 "Hg10 mi
7:53 PM78 °FPartly sunny.6 mph45%29.98 "Hg10 mi
6:53 PM80 °FPassing clouds.7 mph41%29.97 "Hg10 mi
5:53 PM82 °FOvercast.7 mph35%29.96 "Hg10 mi
4:53 PM83 °FPassing clouds.5 mph34%29.97 "Hg10 mi
Weather by CustomWeather, © 2015

See weather overviewHow to use our weather pages